Newport News, VA

1:04 AM EDT on September 29, 2016 (GMT -0400)
Felker Army Air Field

Weather History for KFAF - August, 2013

Change the Weather History Date:

Saturday, August 17, 2013

  Actual Average Record
Temperature  
Mean Temperature 73 °F -  
Max Temperature 78 °F 85 °F 96 °F (1998)
Min Temperature 69 °F 70 °F 65 °F (2008)
Cooling Degree Days 8    
Growing Degree Days 23 (Base 50)    
Moisture  
Dew Point 68 °F    
Average Humidity 84    
Maximum Humidity 94    
Minimum Humidity 57    
Precipitation  
Precipitation 0.37 in - - ()
Sea Level Pressure  
Sea Level Pressure 30.17 in    
Wind  
Wind Speed 6 mph (NE)    
Max Wind Speed 13 mph    
Max Gust Speed 22 mph    
Visibility 9 miles    
Events Rain    
Averages and records for this station are not official NWS values.
T = Trace of Precipitation, MM = Missing Value Source: NWS Daily Summary

Daily Weather History Graph

Daily Weather History Graph

Search for Another Location

Airport or City:

Trip Planner

Search our weather history database for the weather conditions in past years. The results will help you decide how hot, cold, wet, or windy it might be!

Date:

Astronomy

Aug. 17, 2013 Rise Set
Actual Time 6:24 AM EDT 7:55 PM EDT
Civil Twilight 5:57 AM EDT 8:22 PM EDT
Nautical Twilight 5:24 AM EDT 8:55 PM EDT
Astronomical Twilight 4:49 AM EDT 9:30 PM EDT
Moon 5:06 PM EDT (8/17) 2:28 AM EDT (8/17)
Length of Visible Light 14h 25m
Length of Day
13h 30m
Waxing Gibbous, 84% of the Moon is Illuminated
Aug 17
Waxing Gibbous
Aug 20
Full
Aug 28
Last Quarter
Sep 5
New
Sep 12
First Quarter

Hourly Weather History & Observations

Time (EDT) Temp. Dew Point Humidity Pressure Visibility Wind Dir Wind Speed Gust Speed Precip Events Conditions
12:44 AM 71.6 °F 62.6 °F 73% 30.17 in 10.0 mi North 1.2 mph - N/A   Drizzle
12:53 AM 69.8 °F 64.4 °F 83% 30.17 in 10.0 mi Variable 1.2 mph - N/A   Overcast
12:58 AM 69.8 °F 63.7 °F 81% 30.18 in 10.0 mi Variable 1.2 mph - 0.00 in   Overcast
1:58 AM 70.2 °F 64.0 °F 81% 30.16 in 10.0 mi NNE 2.3 mph - N/A   Overcast
2:43 AM 69.8 °F 64.4 °F 83% 30.15 in 10.0 mi Calm Calm - N/A   Overcast
2:58 AM 69.8 °F 66.2 °F 88% 30.16 in 10.0 mi NNW 3.5 mph - N/A   Overcast
3:58 AM 70.3 °F 64.4 °F 81% 30.16 in 10.0 mi North 3.5 mph - N/A   Overcast
4:58 AM 70.0 °F 64.8 °F 83% 30.16 in 10.0 mi North 4.6 mph - N/A   Overcast
5:58 AM 70.2 °F 65.3 °F 85% 30.18 in 10.0 mi North 2.3 mph - N/A   Overcast
6:58 AM 70.3 °F 65.7 °F 85% 30.18 in 10.0 mi North 2.3 mph - N/A   Mostly Cloudy
7:13 AM 69.8 °F 66.2 °F 88% 30.18 in 10.0 mi North 2.3 mph - N/A   Mostly Cloudy
7:58 AM 71.6 °F 66.9 °F 85% 30.19 in 10.0 mi NNE 3.5 mph - N/A   Mostly Cloudy
8:13 AM 73.4 °F 68.0 °F 83% 30.19 in 10.0 mi East 8.1 mph - N/A   Mostly Cloudy
8:58 AM 75.7 °F 67.6 °F 76% 30.20 in 10.0 mi ENE 8.1 mph - N/A   Scattered Clouds
9:08 AM 75.2 °F 66.2 °F 73% 30.19 in 10.0 mi East 9.2 mph 17.3 mph N/A   Mostly Cloudy
9:18 AM 75.2 °F 66.2 °F 73% 30.19 in 10.0 mi ENE 11.5 mph - N/A   Mostly Cloudy
9:58 AM 75.7 °F 64.8 °F 69% 30.20 in 10.0 mi ENE 8.1 mph 21.9 mph N/A   Overcast
10:58 AM 76.5 °F 64.2 °F 66% 30.21 in 10.0 mi East 12.7 mph 18.4 mph N/A   Scattered Clouds
11:58 AM 77.2 °F 62.4 °F 60% 30.22 in 10.0 mi East 11.5 mph 16.1 mph N/A   Overcast
12:58 PM 77.7 °F 61.3 °F 57% 30.21 in 10.0 mi ENE 10.4 mph - N/A   Mostly Cloudy
1:58 PM 76.8 °F 63.1 °F 63% 30.20 in 10.0 mi East 12.7 mph 18.4 mph N/A   Overcast
2:43 PM 77.0 °F 66.2 °F 69% 30.18 in 10.0 mi ENE 11.5 mph - N/A   Mostly Cloudy
2:58 PM 75.4 °F 66.4 °F 73% 30.19 in 10.0 mi ENE 11.5 mph - N/A   Overcast
3:58 PM 74.3 °F 68.4 °F 82% 30.17 in 10.0 mi Variable 5.8 mph - N/A   Overcast
4:11 PM 75.2 °F 68.0 °F 78% 30.16 in 8.0 mi ENE 9.2 mph - N/A   Light Drizzle
4:16 PM 73.4 °F 69.8 °F 88% 30.16 in 7.0 mi ENE 8.1 mph - N/A   Light Drizzle
4:21 PM 73.4 °F 69.8 °F 88% 30.16 in 8.0 mi ENE 9.2 mph - N/A   Overcast
4:58 PM 73.2 °F 69.3 °F 87% 30.17 in 10.0 mi NE 9.2 mph - 0.00 in   Overcast
5:13 PM 73.4 °F 68.0 °F 83% 30.16 in 10.0 mi NE 9.2 mph - N/A   Overcast
5:58 PM 74.3 °F 68.2 °F 81% 30.18 in 10.0 mi NE 6.9 mph - N/A   Mostly Cloudy
6:08 PM 75.2 °F 68.0 °F 78% 30.16 in 10.0 mi ENE 9.2 mph - N/A   Overcast
6:13 PM 75.2 °F 68.0 °F 78% 30.16 in 10.0 mi NE 6.9 mph - N/A   Overcast
6:18 PM 75.2 °F 68.0 °F 78% 30.16 in 10.0 mi NE 9.2 mph - N/A   Overcast
6:19 PM 75.2 °F 68.0 °F 78% 30.16 in 10.0 mi NE 9.2 mph - N/A   Light Drizzle
6:24 PM 75.2 °F 68.0 °F 78% 30.16 in 9.0 mi NE 8.1 mph - N/A Rain Light Rain
6:29 PM 75.2 °F 69.8 °F 83% 30.15 in 10.0 mi NE 9.2 mph - N/A Rain Light Rain
6:34 PM 73.4 °F 69.8 °F 88% 30.15 in 10.0 mi ENE 10.4 mph - N/A   Mostly Cloudy
6:54 PM 75.2 °F 68.0 °F 78% 30.15 in 9.0 mi ENE 10.4 mph 16.1 mph N/A   Drizzle
6:58 PM 74.5 °F 68.5 °F 82% 30.16 in 9.0 mi ENE 10.4 mph 16.1 mph 0.00 in   Light Drizzle
7:04 PM 73.4 °F 68.0 °F 83% 30.15 in 10.0 mi ENE 9.2 mph 18.4 mph N/A   Mostly Cloudy
7:26 PM 73.4 °F 68.0 °F 83% 30.16 in 9.0 mi ENE 11.5 mph 17.3 mph N/A   Light Drizzle
7:58 PM 72.9 °F 69.1 °F 88% 30.17 in 7.0 mi ENE 9.2 mph - 0.00 in Rain Light Rain
8:03 PM 73.4 °F 69.8 °F 88% 30.16 in 7.0 mi ENE 10.4 mph - N/A Rain Light Rain
8:18 PM 71.6 °F 69.8 °F 94% 30.16 in 8.0 mi NE 8.1 mph - N/A Rain Light Rain
8:23 PM 71.6 °F 69.8 °F 94% 30.16 in 9.0 mi NE 6.9 mph - N/A Rain Light Rain
8:28 PM 71.6 °F 69.8 °F 94% 30.16 in 10.0 mi ENE 8.1 mph - N/A   Drizzle
8:48 PM 71.6 °F 69.8 °F 94% 30.17 in 6.0 mi ENE 6.9 mph - N/A Rain Rain
8:58 PM 71.8 °F 69.4 °F 92% 30.18 in 5.0 mi NE 8.1 mph - 0.07 in Rain Light Rain
9:28 PM 71.6 °F 69.8 °F 94% 30.17 in 6.0 mi ENE 6.9 mph - N/A Rain Rain
9:38 PM 71.6 °F 69.8 °F 94% 30.17 in 6.0 mi NE 6.9 mph - N/A Rain Heavy Rain
9:58 PM 71.2 °F 69.1 °F 93% 30.18 in 4.0 mi ENE 9.2 mph - 0.24 in Rain Rain
10:23 PM 71.6 °F 69.8 °F 94% 30.16 in 9.0 mi ENE 9.2 mph - N/A Rain Light Rain
10:39 PM 71.6 °F 69.8 °F 94% 30.16 in 10.0 mi ENE 10.4 mph - N/A   Mostly Cloudy
10:54 PM 71.6 °F 69.8 °F 94% 30.16 in 10.0 mi ENE 9.2 mph - N/A   Light Drizzle
10:58 PM 71.8 °F 69.6 °F 93% 30.17 in 10.0 mi ENE 9.2 mph - 0.04 in   Light Drizzle
11:17 PM 71.6 °F 69.8 °F 94% 30.16 in 10.0 mi ENE 9.2 mph - N/A   Overcast
11:27 PM 71.6 °F 69.8 °F 94% 30.15 in 10.0 mi ENE 9.2 mph - N/A   Drizzle
11:39 PM 71.6 °F 69.8 °F 94% 30.15 in 10.0 mi ENE 8.1 mph - N/A   Overcast
11:43 PM 71.6 °F 69.8 °F 94% 30.15 in 10.0 mi ENE 8.1 mph - N/A   Drizzle
11:53 PM 71.6 °F 69.8 °F 94% 30.15 in 5.0 mi East 6.9 mph - N/A Rain Rain
11:58 PM 72.1 °F 69.8 °F 92% 30.16 in 4.0 mi East 8.1 mph - 0.02 in Rain Rain